FW7008 Weather Reports


time (UTC)temp
C
wind
direction
speed
KPH
gust
KPH
rain 1hr
cm
rain 24hr
cm
rain mn
cm
humidity
%
barometer
mb
20260510193234 20 278 4.8 14.5 0.00 0.00 0.00 78 1014.6
20260510192730 21 184 6.4 14.5 0.00 0.00 0.00 77 1014.6
20260510192226 22 228 6.4 11.3 0.00 0.00 0.00 74 1014.2
20260510191722 21 244 9.7 12.9 0.00 0.00 0.00 76 1014.6
20260510191218 21 255 6.4 8.0 0.00 0.00 0.00 76 1014.6
20260510190716 20 237 9.7 11.3 0.00 0.00 0.00 77 1014.6
20260510190213 21 266 11.3 16.1 0.00 0.00 0.00 76 1014.6
20260510185710 21 272 9.7 12.9 0.00 0.00 0.00 77 1014.2
20260510185208 21 236 11.3 14.5 0.00 0.00 0.00 75 1014.6
20260510184704 21 246 0.0 0.0 0.00 0.00 0.00 76 1014.6
20260510184201 21 233 3.2 8.0 0.00 0.00 0.00 76 1014.6
20260510183656 21 253 11.3 12.9 0.00 0.00 0.00 76 1014.6
20260510183150 21 277 14.5 16.1 0.00 0.00 0.00 77 1014.6
20260510182647 21 239 11.3 14.5 0.00 0.00 0.00 77 1014.6
20260510182143 21 252 11.3 14.5 0.00 0.00 0.00 77 1014.6
20260510181640 21 243 6.4 9.7 0.00 0.00 0.00 76 1014.6
20260510181137 21 275 4.8 8.0 0.00 0.00 0.00 75 1014.6
20260510180633 21 250 8.0 11.3 0.00 0.00 0.00 74 1014.6
20260510180131 21 244 3.2 3.2 0.00 0.00 0.00 75 1014.6
20260510175627 21 206 6.4 8.0 0.00 0.00 0.00 74 1014.6
20260510175122 21 278 0.0 0.0 0.00 0.00 0.00 75 1014.2
20260510174620 21 287 0.0 0.0 0.00 0.00 0.00 76 1014.6
20260510174117 21 216 0.0 0.0 0.00 0.00 0.00 75 1014.6
20260510173613 21 235 0.0 0.0 0.00 0.00 0.00 75 1014.6
20260510173110 21 235 0.0 0.0 0.00 0.00 0.00 76 1014.2
20260510172605 21 172 0.0 0.0 0.00 0.00 0.00 76 1014.2
20260510172102 21 232 0.0 0.0 0.00 0.00 0.00 76 1014.2
20260510171558 21 225 0.0 0.0 0.00 0.00 0.00 76 1014.2
20260510171056 21 357 0.0 0.0 0.00 0.00 0.00 74 1014.2
20260510170552 21 17 0.0 0.0 0.00 0.00 0.00 76 1014.2
20260510170049 20 359 0.0 0.0 0.00 0.00 0.00 78 1014.2
20260510165545 20 296 0.0 0.0 0.00 0.00 0.00 80 1014.2
20260510165041 20 176 0.0 0.0 0.00 0.00 0.00 79 1013.9
20260510164538 20 272 0.0 0.0 0.00 0.00 0.00 79 1014.2
20260510164035 20 94 0.0 0.0 0.00 0.00 0.00 80 1014.2
20260510163530 19 61 0.0 0.0 0.00 0.00 0.00 82 1014.2
20260510163026 19 146 0.0 0.0 0.00 0.00 0.00 82 1014.2
20260510162521 19 280 0.0 0.0 0.00 0.00 0.00 81 1014.2
20260510162013 19 70 0.0 0.0 0.00 0.00 0.00 82 1014.2
20260510161509 18 240 0.0 0.0 0.00 0.00 0.00 83 1014.2
20260510161006 18 229 0.0 0.0 0.00 0.00 0.00 84 1014.2
20260510160503 18 97 0.0 0.0 0.00 0.00 0.00 85 1014.2
20260510160002 18 141 0.0 0.0 0.00 0.00 0.00 85 1014.2
20260510155459 18 125 0.0 0.0 0.00 0.00 0.00 85 1014.2
20260510154955 18 23 0.0 0.0 0.00 0.00 0.00 85 1013.9
20260510154451 17 358 0.0 0.0 0.00 0.00 0.00 86 1014.2
20260510153950 17 9 0.0 0.0 0.00 0.00 0.00 86 1014.2
20260510153446 17 37 0.0 0.0 0.00 0.00 0.00 87 1014.2
20260510152942 17 347 0.0 0.0 0.00 0.00 0.00 87 1014.2
20260510152435 17 313 0.0 0.0 0.00 0.00 0.00 88 1014.2
20260510151931 17 291 0.0 0.0 0.00 0.00 0.00 88 1013.9
20260510151428 17 4 0.0 0.0 0.00 0.00 0.00 89 1014.2
20260510150924 17 14 0.0 0.0 0.00 0.00 0.00 89 1014.6
20260510150420 17 42 0.0 0.0 0.00 0.00 0.00 89 1014.2
20260510145916 17 358 0.0 0.0 0.00 0.00 0.00 89 1014.2
20260510145412 17 86 0.0 0.0 0.00 0.00 0.00 90 1014.2
20260510144909 17 89 0.0 0.0 0.00 0.00 0.00 90 1013.9
20260510144406 16 88 0.0 0.0 0.00 0.00 0.00 91 1014.2
20260510143901 16 131 0.0 0.0 0.00 0.00 0.00 91 1013.9
20260510143357 16 71 0.0 0.0 0.00 0.00 0.00 91 1013.9
20260510142854 16 51 0.0 0.0 0.00 0.00 0.00 92 1013.5
20260510142351 16 24 0.0 0.0 0.00 0.00 0.00 92 1013.9
20260510141847 16 43 0.0 0.0 0.00 0.00 0.00 92 1013.9
20260510141345 16 42 0.0 0.0 0.00 0.00 0.00 92 1013.9
20260510140842 16 13 0.0 0.0 0.00 0.00 0.00 92 1013.9
20260510140338 16 27 0.0 0.0 0.00 0.00 0.00 93 1013.9
20260510135837 16 37 0.0 0.0 0.00 0.00 0.00 93 1013.9
20260510135333 16 28 0.0 0.0 0.00 0.00 0.00 93 1013.5
20260510134831 16 16 0.0 0.0 0.00 0.00 0.00 93 1013.9
20260510134328 16 50 0.0 0.0 0.00 0.00 0.00 94 1013.9
20260510133824 16 36 0.0 0.0 0.00 0.00 0.00 94 1013.9
20260510133320 16 18 0.0 0.0 0.00 0.00 0.00 94 1013.5
20260510132815 16 36 0.0 0.0 0.00 0.00 0.00 94 1013.5
20260510132314 16 45 0.0 0.0 0.00 0.00 0.00 94 1013.5
20260510131810 16 23 0.0 0.0 0.00 0.00 0.00 94 1013.9
20260510131308 16 23 0.0 0.0 0.00 0.00 0.00 94 1013.5
20260510130805 15 31 0.0 0.0 0.00 0.00 0.00 94 1013.5
20260510130302 15 54 0.0 0.0 0.00 0.00 0.00 94 1013.5
20260510125758 15 66 0.0 0.0 0.00 0.00 0.00 94 1013.5
20260510125254 15 61 0.0 0.0 0.00 0.00 0.00 95 1013.5
20260510124751 15 18 0.0 0.0 0.00 0.00 0.00 95 1013.5
20260510124248 15 32 0.0 0.0 0.00 0.00 0.00 95 1013.5
20260510123743 15 47 0.0 0.0 0.00 0.00 0.00 95 1013.5
20260510123240 15 57 0.0 0.0 0.00 0.00 0.00 95 1013.5
20260510122736 15 57 0.0 0.0 0.00 0.00 0.00 96 1013.5
20260510122232 15 57 0.0 0.0 0.00 0.00 0.00 96 1013.5
20260510121729 15 57 0.0 0.0 0.00 0.00 0.00 96 1013.5
20260510121226 15 57 0.0 0.0 0.00 0.00 0.00 96 1013.5
20260510120724 15 66 0.0 0.0 0.00 0.00 0.00 96 1013.5
20260510120220 15 69 0.0 0.0 0.00 0.00 0.00 96 1013.2
20260510115715 15 121 0.0 0.0 0.00 0.00 0.00 96 1013.5
20260510115214 15 112 0.0 0.0 0.00 0.00 0.00 96 1013.5
20260510114709 15 113 0.0 0.0 0.00 0.00 0.00 96 1013.5
20260510114206 15 83 0.0 0.0 0.00 0.00 0.00 96 1013.2
20260510113701 15 105 0.0 0.0 0.00 0.00 0.00 97 1013.5
20260510113158 15 68 0.0 0.0 0.00 0.00 0.00 97 1013.5
20260510112655 15 75 0.0 0.0 0.00 0.00 0.00 97 1013.9
20260510112152 15 79 0.0 0.0 0.00 0.00 0.00 97 1013.5
20260510111648 15 68 0.0 0.0 0.00 0.00 0.00 97 1013.5
20260510111144 15 69 0.0 0.0 0.00 0.00 0.00 97 1013.5
20260510110639 15 80 0.0 0.0 0.00 0.00 0.00 97 1013.2
20260510110137 15 66 0.0 0.0 0.00 0.00 0.00 98 1013.5
20260510105632 15 64 0.0 0.0 0.00 0.00 0.00 98 1013.5
20260510105126 15 77 0.0 0.0 0.00 0.00 0.00 99 1013.5
20260510104624 15 84 0.0 0.0 0.00 0.00 0.00 99 1013.5
20260510104121 15 73 0.0 0.0 0.00 0.00 0.00 99 1013.5
20260510103617 15 100 0.0 0.0 0.00 0.00 0.00 99 1013.5
20260510103113 15 88 0.0 0.0 0.00 0.00 0.00 98 1013.5
20260510102609 15 80 0.0 0.0 0.00 0.00 0.00 98 1013.5
20260510102105 15 66 0.0 0.0 0.00 0.00 0.00 98 1013.5
20260510101603 15 81 0.0 0.0 0.00 0.00 0.00 98 1013.5
20260510101101 15 77 0.0 0.0 0.00 0.00 0.00 98 1013.5
20260510100556 15 61 0.0 0.0 0.00 0.00 0.00 98 1013.5
20260510100054 15 83 0.0 0.0 0.00 0.00 0.00 98 1013.5
20260510095550 15 86 0.0 0.0 0.00 0.00 0.00 97 1013.5
20260510095049 15 84 0.0 0.0 0.00 0.00 0.00 97 1013.9
20260510094544 15 95 0.0 0.0 0.00 0.00 0.00 97 1013.5
20260510094040 16 86 0.0 0.0 0.00 0.00 0.00 97 1013.5
20260510093536 16 144 0.0 0.0 0.00 0.00 0.00 97 1013.9
20260510093033 16 78 0.0 0.0 0.00 0.00 0.00 97 1013.2
20260510092530 16 95 0.0 0.0 0.00 0.00 0.00 97 1013.5
20260510092030 16 78 0.0 0.0 0.00 0.00 0.00 96 1013.5
20260510091527 16 84 0.0 0.0 0.00 0.00 0.00 96 1013.2
20260510091022 16 153 0.0 0.0 0.00 0.00 0.00 96 1013.5
20260510090519 16 81 0.0 0.0 0.00 0.00 0.00 96 1013.5
20260510090015 16 95 0.0 0.0 0.00 0.00 0.00 96 1013.2
20260510085510 16 58 0.0 0.0 0.00 0.00 0.00 96 1013.5
20260510085006 16 77 0.0 0.0 0.00 0.00 0.00 96 1013.5
20260510084503 16 65 0.0 0.0 0.00 0.00 0.00 96 1013.5
20260510084000 16 64 0.0 0.0 0.00 0.00 0.00 96 1013.9
20260510083456 16 32 0.0 0.0 0.00 0.00 0.00 96 1013.5
20260510082951 16 2 0.0 0.0 0.00 0.00 0.00 96 1013.5
20260510082450 16 82 0.0 0.0 0.00 0.00 0.00 96 1013.5
20260510081949 16 29 0.0 0.0 0.00 0.00 0.00 97 1013.9
20260510081445 16 30 0.0 0.0 0.00 0.00 0.00 97 1013.9
20260510080941 16 14 0.0 0.0 0.00 0.00 0.00 97 1013.5
20260510080439 16 14 0.0 0.0 0.00 0.00 0.00 97 1013.9
20260510075937 16 25 0.0 0.0 0.00 0.00 0.00 97 1013.9
20260510075435 16 27 0.0 0.0 0.00 0.00 0.00 97 1013.9
20260510074931 16 59 0.0 0.0 0.00 0.00 0.00 97 1013.9
20260510074428 16 64 0.0 0.0 0.00 0.00 0.00 97 1013.9
20260510073925 16 54 0.0 0.0 0.00 0.00 0.00 98 1013.9
20260510073420 16 49 0.0 0.0 0.00 0.00 0.00 97 1013.9
20260510072917 16 49 0.0 0.0 0.00 0.00 0.00 98 1013.9
20260510072414 16 56 0.0 0.0 0.00 0.00 0.00 98 1013.9
20260510071909 16 80 0.0 0.0 0.00 0.00 0.00 98 1014.2
20260510071406 16 91 0.0 0.0 0.00 0.00 0.00 98 1014.2
20260510070905 15 100 0.0 0.0 0.00 0.00 0.00 98 1013.9
20260510070401 15 120 0.0 0.0 0.00 0.00 0.00 98 1013.9
20260510065856 15 47 0.0 0.0 0.00 0.00 0.00 98 1013.9
20260510065353 15 89 0.0 0.0 0.00 0.00 0.00 99 1014.2
20260510064850 15 134 0.0 0.0 0.00 0.00 0.00 99 1014.2
20260510064348 15 95 0.0 0.0 0.00 0.00 0.00 99 1014.2
20260510063844 15 146 0.0 0.0 0.00 0.00 0.00 99 1014.2
20260510063340 15 59 0.0 0.0 0.00 0.00 0.00 99 1013.9
20260510062837 15 59 0.0 0.0 0.00 0.00 0.00 99 1013.9
20260510062332 15 300 0.0 0.0 0.00 0.00 0.00 99 1013.9
20260510061828 15 323 0.0 0.0 0.00 0.00 0.00 99 1013.9
20260510061325 15 305 0.0 0.0 0.00 0.00 0.00 99 1014.2
20260510060821 15 300 0.0 0.0 0.00 0.00 0.00 99 1013.9
20260510060318 15 250 0.0 0.0 0.00 0.00 0.00 99 1014.2
20260510055815 15 287 0.0 0.0 0.00 0.00 0.00 99 1013.9
20260510055314 15 269 0.0 0.0 0.00 0.00 0.00 99 1013.9
20260510054813 15 250 0.0 0.0 0.00 0.00 0.00 99 1013.9
20260510054309 15 274 0.0 0.0 0.00 0.00 0.00 99 1014.2
20260510053804 15 246 0.0 0.0 0.00 0.00 0.00 99 1014.2
20260510053300 15 268 0.0 0.0 0.00 0.00 0.00 99 1014.2
20260510052756 15 277 0.0 0.0 0.00 0.00 0.00 99 1014.2
20260510052252 15 276 0.0 0.0 0.00 0.00 0.00 99 1013.9
20260510051748 15 248 0.0 0.0 0.00 0.00 0.00 99 1014.2
20260510051245 15 197 0.0 0.0 0.00 0.00 0.00 99 1013.9
20260510050742 15 284 0.0 0.0 0.00 0.00 0.00 99 1013.9
20260510050239 15 266 0.0 0.0 0.00 0.00 0.00 99 1013.9
20260510045736 15 257 0.0 0.0 0.00 0.00 0.00 99 1014.2
20260510045232 15 236 0.0 0.0 0.00 0.00 0.00 99 1014.2
20260510044728 15 240 3.2 4.8 0.00 0.00 0.00 99 1014.2
20260510044227 15 264 0.0 0.0 0.00 0.00 0.00 99 1013.9
20260510043721 15 235 0.0 0.0 0.00 0.00 0.00 99 1013.9
20260510043219 15 218 0.0 0.0 0.00 0.00 0.00 99 1013.9
20260510042716 15 237 0.0 0.0 0.00 0.00 0.00 99 1014.2
20260510042212 15 238 0.0 0.0 0.00 0.00 0.00 99 1013.9
20260510041709 15 252 0.0 0.0 0.00 0.00 0.00 99 1013.9
20260510041206 15 218 0.0 0.0 0.00 0.00 0.00 99 1013.9
20260510040703 15 229 0.0 0.0 0.00 0.00 0.00 99 1013.9
20260510040200 15 244 0.0 0.0 0.00 0.00 0.00 99 1013.5
20260510035655 15 277 0.0 0.0 0.00 0.00 0.00 99 1013.9
20260510035151 15 238 0.0 0.0 0.00 0.00 0.00 99 1013.5
20260510034647 15 284 6.4 11.3 0.00 0.00 0.00 98 1013.5
20260510034145 15 244 0.0 0.0 0.00 0.00 0.00 98 1013.5
20260510033640 15 263 9.7 12.9 0.00 0.00 0.00 98 1013.2
20260510033133 15 266 0.0 0.0 0.00 0.00 0.00 98 1013.2
20260510032629 15 269 9.7 12.9 0.00 0.00 0.00 98 1013.2
20260510032125 15 248 6.4 9.7 0.00 0.00 0.00 98 1012.9
20260510031620 15 244 0.0 0.0 0.00 0.00 0.00 98 1013.2
20260510031116 15 246 11.3 14.5 0.00 0.00 0.00 98 1012.9
20260510030611 15 212 6.4 9.7 0.00 0.00 0.00 98 1013.2
20260510030109 15 268 0.0 0.0 0.00 0.00 0.00 97 1012.9
20260510025606 15 221 3.2 9.7 0.00 0.00 0.00 97 1012.9
20260510025104 15 178 1.6 9.7 0.00 0.00 0.00 98 1012.9
20260510024600 15 268 0.0 0.0 0.00 0.00 0.00 97 1012.9
20260510024056 15 240 0.0 3.2 0.00 0.00 0.00 97 1012.9
20260510023553 15 239 0.0 0.0 0.00 0.00 0.00 97 1012.5
20260510023051 16 241 8.0 9.7 0.00 0.00 0.00 96 1012.9
20260510022550 16 255 0.0 4.8 0.00 0.00 0.00 96 1012.9
20260510022044 16 223 8.0 14.5 0.00 0.00 0.00 96 1012.9
20260510021541 16 255 0.0 0.0 0.00 0.00 0.00 96 1012.5
20260510021038 16 239 17.7 17.7 0.00 0.00 0.00 96 1012.5
20260510020532 16 270 9.7 11.3 0.00 0.00 0.00 96 1012.9
20260510020028 16 228 0.0 0.0 0.00 0.00 0.00 95 1012.5
20260510015523 16 190 14.5 16.1 0.00 0.00 0.00 95 1012.5
20260510015020 16 230 17.7 24.1 0.00 0.00 0.00 94 1012.5
20260510014516 16 216 11.3 14.5 0.00 0.00 0.00 93 1012.5
20260510014014 16 268 11.3 12.9 0.00 0.00 0.00 92 1012.5
20260510013508 16 236 11.3 12.9 0.00 0.00 0.00 92 1012.2
20260510013005 16 267 9.7 12.9 0.00 0.00 0.00 92 1012.5
20260510012459 17 252 4.8 9.7 0.00 0.00 0.00 92 1012.5
20260510011955 17 200 8.0 14.5 0.00 0.00 0.00 91 1012.2
20260510011449 17 231 8.0 11.3 0.00 0.00 0.00 91 1012.2
20260510010946 17 225 9.7 12.9 0.00 0.00 0.00 90 1012.5
20260510010443 17 248 14.5 16.1 0.00 0.00 0.00 89 1012.2
20260510005940 17 241 9.7 12.9 0.00 0.00 0.00 90 1012.2
20260510005436 18 234 16.1 20.9 0.00 0.00 0.00 88 1012.2
20260510004933 17 248 3.2 12.9 0.00 0.00 0.00 89 1012.2
20260510004430 17 239 19.3 24.1 0.00 0.00 0.00 89 1012.2
20260510003929 18 215 16.1 20.9 0.00 0.00 0.00 88 1012.2
20260510003425 18 235 12.9 16.1 0.00 0.00 0.00 87 1012.2
20260510002924 18 250 16.1 16.1 0.00 0.00 0.00 88 1012.2
20260510002422 18 246 11.3 12.9 0.00 0.00 0.00 87 1012.5
20260510001918 18 253 11.3 16.1 0.00 0.00 0.00 88 1012.2
20260510001416 18 246 12.9 16.1 0.00 0.00 0.00 88 1012.2
20260510000913 18 235 11.3 12.9 0.00 0.00 0.00 87 1012.5
20260510000411 18 253 19.3 22.5 0.00 0.00 0.00 86 1012.5
20260509235905 18 244 8.0 12.9 0.00 0.00 0.00 85 1012.5
20260509235402 19 269 14.5 22.5 0.00 0.00 0.00 83 1012.5
20260509234858 19 226 14.5 20.9 0.00 0.00 0.00 83 1012.2
20260509234356 18 251 11.3 14.5 0.00 0.00 0.00 85 1012.2
20260509233854 20 238 14.5 17.7 0.00 0.00 0.00 83 1012.5
20260509233351 18 253 12.9 14.5 0.00 0.00 0.00 86 1012.2
20260509232846 20 257 14.5 22.5 0.00 0.00 0.00 82 1012.5
20260509232345 19 233 12.9 16.1 0.00 0.00 0.00 83 1012.5
20260509231840 19 236 11.3 12.9 0.00 0.00 0.00 83 1012.5
20260509231337 19 261 12.9 20.9 0.00 0.00 0.00 83 1012.5
20260509230835 20 147 6.4 8.0 0.00 0.00 0.00 82 1012.5
20260509230332 20 265 6.4 9.7 0.00 0.00 0.00 82 1012.2
20260509225827 20 232 11.3 20.9 0.00 0.00 0.00 83 1012.5
20260509225324 20 243 17.7 17.7 0.00 0.00 0.00 81 1012.5
20260509224820 20 232 14.5 16.1 0.00 0.00 0.00 82 1012.9
20260509224316 20 232 16.1 22.5 0.00 0.00 0.00 81 1012.5
20260509223813 20 245 11.3 12.9 0.00 0.00 0.00 81 1012.5
20260509223310 20 199 8.0 11.3 0.00 0.00 0.00 82 1012.9
20260509222806 20 249 16.1 22.5 0.00 0.00 0.00 81 1012.5
20260509222306 20 265 14.5 20.9 0.00 0.00 0.00 82 1012.9
20260509221753 20 263 14.5 17.7 0.00 0.00 0.00 82 1012.9
20260509221249 20 212 11.3 12.9 0.00 0.00 0.00 81 1012.9
20260509220745 20 241 12.9 14.5 0.00 0.00 0.00 83 1013.2
20260509220242 19 259 12.9 14.5 0.00 0.00 0.00 84 1013.2
20260509215737 20 277 16.1 22.5 0.00 0.00 0.00 84 1013.5
20260509215234 20 243 12.9 16.1 0.00 0.00 0.00 81 1013.2
20260509214731 20 226 8.0 9.7 0.00 0.00 0.00 82 1013.2
20260509214228 20 250 12.9 16.1 0.00 0.00 0.00 82 1013.2
20260509213725 20 216 9.7 16.1 0.00 0.00 0.00 82 1013.2
20260509213220 21 223 12.9 16.1 0.00 0.00 0.00 81 1013.5
20260509212718 20 252 14.5 17.7 0.00 0.00 0.00 81 1013.2
20260509212215 21 267 6.4 9.7 0.00 0.00 0.00 81 1013.5
20260509211710 21 244 14.5 16.1 0.00 0.00 0.00 78 1013.5
20260509211202 20 242 11.3 12.9 0.00 0.00 0.00 80 1013.5
20260509210658 21 255 9.7 11.3 0.00 0.00 0.00 82 1013.5
20260509210156 21 220 4.8 4.8 0.00 0.00 0.00 78 1013.9
20260509205650 21 233 9.7 16.1 0.00 0.00 0.00 78 1013.5
20260509205150 20 222 9.7 16.1 0.00 0.00 0.00 80 1013.5
20260509204646 21 281 12.9 16.1 0.00 0.00 0.00 78 1013.9
20260509204142 22 263 8.0 9.7 0.00 0.00 0.00 77 1013.9
20260509203639 21 241 6.4 9.7 0.00 0.00 0.00 79 1013.5
20260509203137 21 251 14.5 16.1 0.00 0.00 0.00 76 1013.9
20260509202637 21 240 12.9 14.5 0.00 0.00 0.00 77 1014.2
20260509202133 22 264 3.2 8.0 0.00 0.00 0.00 75 1013.9
20260509201628 22 264 3.2 8.0 0.00 0.00 0.00 75 1013.9
20260509201125 21 230 8.0 11.3 0.00 0.00 0.00 77 1013.5
20260509200621 21 250 9.7 11.3 0.00 0.00 0.00 80 1013.9
20260509200117 21 273 11.3 14.5 0.00 0.00 0.00 78 1013.9
20260509195613 21 227 9.7 12.9 0.00 0.00 0.00 77 1013.9
20260509195107 21 227 6.4 11.3 0.00 0.00 0.00 78 1014.2
20260509194606 21 281 16.1 17.7 0.00 0.00 0.00 78 1013.9
20260509194105 21 252 11.3 12.9 0.00 0.00 0.00 80 1013.9
20260509193601 20 265 14.5 16.1 0.00 0.00 0.00 81 1014.2